Regional Weather Roundup
Issued by NWS Upton, NY

Current Version | Previous Version | Graphics & Text | Print | Product List | Glossary Off
Versions: 1 2 3 4 5 6 7 8 9 10 11 12 13 14 15 16 17 18 19 20 21 22 23 24 25 26 27 28 29 30 31 32 33 34 35 36 37 38 39 40 41 42 43 44 45 46 47 48 49 50
000 ASUS41 KOKX 151905 RWROKX REGIONAL WEATHER ROUNDUP NATIONAL WEATHER SERVICE NEW YORK NY 300 PM EDT MON SEP 15 2014 NOTE: "FAIR" INDICATES FEW OR NO CLOUDS BELOW 12,000 FEET WITH NO SIGNIFICANT WEATHER AND/OR OBSTRUCTIONS TO VISIBILITY. NYZ071-072-176-178-NJZ106-104-152000- NEW YORK CITY METRO AREA CITY SKY/WX TMP DP RH WIND PRES REMARKS CENTRAL PARK SUNNY 71 41 33 VRB3 30.17F LAGUARDIA APRT MOSUNNY 71 41 33 W7 30.14F KENNEDY INTL MOSUNNY 69 42 37 SW10 30.16F NEWARK/LIBERTY MOSUNNY 72 43 35 VRB5 30.15F BRNX BOT. GARD N/A 70 43 37 NW2 30.16F TETERBORO SUNNY 71 41 33 VRB3 30.14F $$ NYZ177-179-078>081-152000- LONG ISLAND NEW YORK CITY SKY/WX TMP DP RH WIND PRES REMARKS FARMINGDALE SUNNY 71 43 36 N8 30.16F ISLIP MOSUNNY 69 42 37 N9 30.14F SHIRLEY SUNNY 69 40 34 SW6 30.16F WESTHAMPTON SUNNY 67 44 43 E3 30.17F MONTAUK POINT N/A 66 44 45 VRB3 30.17F $$ NYZ052-065-067-152000- HUDSON VALLEY CITY SKY/WX TMP DP RH WIND PRES REMARKS WHITE PLAINS MOSUNNY 69 42 37 N6 30.15F NEWBURGH MOSUNNY 66 46 48 VRB5 30.17F MONTGOMERY SUNNY 69 45 41 SW8 30.15F POUGHKEEPSIE MOSUNNY 70 43 37 VRB3 30.14F ALBANY MOSUNNY 65 40 39 NE6 30.16F $$ NJZ001-105-106-008-010-013-015-019>022-104-152000- NEW JERSEY CITY SKY/WX TMP DP RH WIND PRES REMARKS NEWARK/LIBERTY MOSUNNY 72 43 35 VRB5 30.15F TETERBORO SUNNY 71 41 33 VRB3 30.14F CALDWELL SUNNY 69 42 37 S5 30.15F MORRISTOWN MOSUNNY 70 45 40 CALM 30.15F SOMERVILLE SUNNY 72 43 35 VRB6 30.14F LINDEN FAIR 75 45 33 W3 30.17F SUSSEX PTSUNNY 70 46 42 VRB5 30.16F ANDOVER N/A 69 45 41 CALM 30.17F TRENTON SUNNY 70 45 40 VRB3 30.15F MILLVILLE MOSUNNY 72 48 42 N6 30.16F ATLANTIC CITY MOSUNNY 69 49 48 CALM 30.16F WRIGHTSTOWN SUNNY 71 48 45 SE1 30.13F TOMS RIVER PTSUNNY 66 48 52 CALM 30.17F BELMAR CLOUDY 68 46 45 SE6 30.16F $$ PAZ047>061-062-071-152000- EASTERN PENNSYLVANIA CITY SKY/WX TMP DP RH WIND PRES REMARKS PHILADELPHIA MOSUNNY 72 45 37 CALM 30.16F ALLENTOWN SUNNY 69 43 38 CALM 30.17F SCRANTON SUNNY 66 41 40 VRB3 30.14F $$ CTZ002-004>006-009-010-012-RIZ004-006-007-MAZ004-011-015-152000- SOUTHERN NEW ENGLAND IN CT CITY SKY/WX TMP DP RH WIND PRES REMARKS BRADLEY INTL MOSUNNY 68 41 37 CALM 30.14F HARTFORD SUNNY 67 41 38 SW8 30.14F DANBURY SUNNY 66 41 40 NW8 30.17F WTRBRY/OXFORD MOSUNNY 64 45 48 VRB6 30.17F BRIDGEPORT SUNNY 69 44 40 SW14 30.15F MERIDEN SUNNY 68 40 35 VRB6 30.14F NEW HAVEN SUNNY 68 45 43 SW8 30.15F CHESTER FAIR 64 41 42 W6 30.15F GROTON SUNNY 65 47 52 S10 30.14F WILLIMANTIC SUNNY 66 42 41 S7 30.15F IN RI CITY SKY/WX TMP DP RH WIND PRES REMARKS PROVIDENCE MOSUNNY 68 45 43 S8 30.14F BLOCK ISLAND SUNNY 66 43 42 W6 30.16F WESTERLY SUNNY 67 43 41 SW8 30.15F IN MA CITY SKY/WX TMP DP RH WIND PRES REMARKS BOSTON PTSUNNY 67 42 40 VRB7 30.14F WORCESTER MOSUNNY 60 40 47 NW5 30.16F WESTFIELD SUNNY 65 40 39 VRB3 30.14F PROVINCETOWN SUNNY 63 48 59 N6 30.16F NANTUCKET PTSUNNY 64 49 57 S9 30.15F $$ ANZ330-335-338-340-345-350-353-355-152000- COASTAL MARINE OBSERVATIONS STATION/POSITION TIME SKY/WX TEMP WIND PRES VSBY WAVE AIR SEA DIR/SP/G HT/PER (UTC) (F) (DEG/KT/KT) (MB) (MI) (FT/S) NY HARB ENTRANCE NOT AVBL 4S FIRE IS NOT AVBL 23SW MTP 1900 N/A 2/ 6 HUDSON CANYON 1900 67 76 300/ 2/ 4 1020.7 2/ 7 EXECUTION ROCKS 1900 67 72 190/ 6/ 10 N/A WESTERN LI SOUND 1900 66 200/ 6/ 8 N/A 1 CENTRAL LI SOUND 1800 63 72 240/ 6/ 10 N/A 1 EASTERN LI SOUND 1800 65 69 210/ 8/ 10 N/A ROBBINS REEF 1900 65 170/ 10/ 13 1019.9 $$ >>>>>>>>>>>>>>>>>>>>>>>>>>>> KEY <<<<<<<<<<<<<<<<<<<<<<<<<<< > < > SKY/WX - SKY CONDITION/PRESENT WEATHER < > TMP - TEMPERATURE IN FAHRENHEIT < > DP - DEWPOINT IN FAHRENHEIT < > RH - RELATIVE HUMIDITY IN PERCENT < > WIND - DIRECTION AND SPEED IN MPH < > PRES - MEAN SEA LEVEL PRESSURE IN INCHES OF HG < > WCI - WIND CHILL INDEX < > VSB - VISIBILITY IN MILES < > HX - HEAT INDEX < > TC - TEMPERATURE IN CELSIUS < > VRB - VARIABLE WIND DIRECTION < > < >>>>>>>>>>>>>>>>>>>>>>>>>>>> KEY <<<<<<<<<<<<<<<<<<<<<<<<<<<

USA.gov is the U.S. government's official web portal to all federal, state and local government web resources and services.